Location: *
(51.8167°N, 12.5000°E)
Time: 11:46:32
(UTC+00:00)

Okean 1-7 Rocket - Pass Details

Date: 16 September 2019
Orbit: 617 x 649 km, 82.5° (Epoch: 19 October)

Event Time Altitude Azimuth Distance (km) Brightness Sun altitude
Rises 18:50:58 0° 351° (N) 2,910 7.5 -14.0°
Reaches altitude 10° 18:53:14 10° 355° (N) 2,002 6.5 -14.3°
Maximum altitude 18:57:38 61° 76° (ENE) 715 3.6 -14.9°
Enters shadow 19:00:41 19° 153° (SSE) 1,488 5.1 -15.3°
